Location: Unspecified
(0.0000°N, 0.0000°E)
Time: 13:33:05
(UTC+00:00)

OV1 5 - Visible Passes

Search period start: 11 March 2026 00:00
Search period end: 21 March 2026 00:00
Orbit: 978 x 1049 km, 144.6° (Epoch: 11 March)

Date Brightness Start Highest point End Pass type
(mag) Time Alt. Az. Time Alt. Az. Time Alt. Az.
14 Mar 9.6 04:28:37 10° SSW 04:28:48 10° SSW 04:28:48 10° SSW visible
15 Mar 10.0 03:17:56 10° SSE 03:18:09 11° SSE 03:18:09 11° SSE visible
16 Mar 9.3 03:50:53 10° SSE 03:52:53 19° S 03:52:53 19° S visible
17 Mar 9.0 04:23:56 10° SSE 04:27:39 21° SSW 04:27:39 21° SSW visible
18 Mar 9.7 03:15:48 10° SE 03:17:07 18° SE 03:17:07 18° SE visible
18 Mar 9.1 04:57:09 10° S 05:00:39 17° SSW 05:02:28 14° SW visible
19 Mar 8.6 03:48:32 10° SE 03:51:59 34° SSE 03:51:59 34° SSE visible
19 Mar 9.4 05:30:35 10° S 05:33:08 13° SSW 05:35:41 10° SW visible
20 Mar 8.0 04:21:18 10° SE 04:26:44 40° SSW 04:26:54 40° SW visible
